This is the latest recevied weather packets stored in our database for station/object KC3ULW-13. If no packets are shown the sender has not sent any weather packets the latest 10 day(s).
| Time | Temp. | Humidity | Pressure | Rain* | Wind** | Luminosity | Snow |
|---|---|---|---|---|---|---|---|
| 1777929296 | 23.33° C | 44% | 1009.5 hPa | 0 mm | - | 419 W/m² | - |
| 1777928994 | 23.33° C | 45% | 1009.5 hPa | 0 mm | - | 121 W/m² | - |
| 1777928690 | 23.89° C | 44% | 1009.4 hPa | 0 mm | - | 410 W/m² | - |
| 1777928387 | 23.89° C | 44% | 1009.5 hPa | 0 mm | - | 421 W/m² | - |
| 1777928084 | 23.33° C | 44% | 1009.4 hPa | 0 mm | - | 424 W/m² | - |
| 1777927783 | 23.33° C | 45% | 1009.6 hPa | 0 mm | - | 159 W/m² | - |
| 1777927481 | 23.89° C | 44% | 1009.6 hPa | 0 mm | - | 468 W/m² | - |
| 1777927180 | 23.33° C | 45% | 1009.5 hPa | 0 mm | - | 498 W/m² | - |
| 1777926877 | 23.89° C | 43% | 1009.6 hPa | 0 mm | - | 114 W/m² | - |
| 1777926573 | 23.89° C | 43% | 1009.6 hPa | 0 mm | - | 439 W/m² | - |
| 1777926269 | 23.89° C | 44% | 1009.7 hPa | 0 mm | - | 422 W/m² | - |
| 1777925966 | 23.33° C | 45% | 1009.6 hPa | 0 mm | - | 484 W/m² | - |
| 1777925664 | 23.89° C | 46% | 1009.6 hPa | 0 mm | - | 538 W/m² | - |
| 1777925361 | 23.89° C | 44% | 1009.7 hPa | 0 mm | - | 556 W/m² | - |
| 1777925058 | 23.33° C | 45% | 1009.6 hPa | 0 mm | - | 587 W/m² | - |
| 1777924754 | 23.33° C | 43% | 1009.8 hPa | 0 mm | - | 338 W/m² | - |
| 1777924450 | 23.33° C | 44% | 1009.9 hPa | 0 mm | - | 571 W/m² | - |
| 1777924147 | 23.33° C | 44% | 1009.9 hPa | 0 mm | - | 598 W/m² | - |
| 1777923843 | 23.89° C | 43% | 1010 hPa | 0 mm | - | 617 W/m² | - |
| 1777923539 | 23.33° C | 44% | 1010.2 hPa | 0 mm | - | 613 W/m² | - |
| 1777923236 | 23.89° C | 44% | 1009.9 hPa | 0 mm | - | 618 W/m² | - |
| 1777922935 | 23.33° C | 44% | 1010.3 hPa | 0 mm | - | 650 W/m² | - |
| 1777922632 | 22.78° C | 45% | 1009.9 hPa | 0 mm | - | 619 W/m² | - |
| 1777922330 | 23.33° C | 44% | 1010.3 hPa | 0 mm | - | 611 W/m² | - |
| 1777922028 | 23.33° C | 44% | 1010.2 hPa | 0 mm | - | 633 W/m² | - |
* Rain latest hour (hover to see other rain measurements)
** Current wind speed in m/s (hover to see current wind gust speed)